Location: Lakeview Terrace
(41.4931°N, 81.7101°W)
Time: 20:51:11
(UTC+00:00)

Cosmos 1656 - Pass Details

Date: 29 October 2020
Orbit: 797 x 851 km, 71.1° (Epoch: 02 December)

Event Time Altitude Azimuth Distance (km) Brightness Sun altitude
Rises 23:17:29 0° 203° (SSW) 3,329 7.3 -10.4°
Reaches altitude 10° 23:19:53 10° 204° (SSW) 2,409 6.5 -10.9°
Maximum altitude 23:25:25 85° 293° (WNW) 838 3.7 -11.9°
Drops below altitude 10° 23:31:05 10° 23° (NNE) 2,461 5.8 -12.9°
Sets 23:33:33 0° 24° (NNE) 3,406 6.6 -13.4°
